User: anonymous   Login
Location: Unspecified
(0.0000°N, 0.0000°E)
Time: 14:26:14
(UTC+00:00)
Language:

USA 229 - Orbit

View from above orbital plane
View from above orbital plane
View from above satellite
View from above satellite

Ground track
Ground track

The orbit data is extracted from the following two-line orbital elements,

1 37386U 11014A   15114.11140427 0.00000000  00000-0  00000-0 0    09
2 37386  63.4425 213.5307 0007004 124.9049 235.0951 13.40675465    00
Epoch (UTC): 24 April 2015 02:40:25
Eccentricity: 0.0007004
inclination: 63.4425°
perigee height: 1101 km
apogee height: 1112 km
right ascension of ascending node: 213.5307°
argument of perigee: 124.9049°
revolutions per day: 13.40675465
mean anomaly at epoch: 235.0951°
orbit number at epoch: 0

The dashed part of the orbit path shows where the satellite is in the earth's shadow,  

DLR